Theta_e
286 286 285 285 285 285 285 285 285 285 284 284 284 284 284 284 284 284 284 284 284 284 284 285 285 285 285 285 285 285 285 286 286 287 287 287 288 288 288 288 288 288 288 288 288 288 288 288 288 289 289 289 289 289 289 290 290 290 290 290 291 291 291 291 292 292 292 292 292 293 293 292 292 292 292 292 292 292 292 293 293 293 293 293 293 294
286 286 285 285 285 285 285 285 285 284 284 284 284 284 284 284 284 284 284 284 284 284 284 285 285 285 285 285 285 285 285 286 286 286 287 287 287 287 287 287 287 287 288 288 288 288 288 288 288 288 288 289 289 289 289 289 290 290 290 290 290 291 291 291 291 291 291 292 292 292 292 291 291 291 291 291 291 292 292 292 292 292 293 293 293 293
286 286 285 285 285 285 285 285 285 285 284 284 284 284 284 284 284 284 284 284 284 284 285 285 285 285 285 285 285 285 285 285 286 286 286 287 287 287 287 287 287 287 287 287 287 288 288 288 288 288 288 288 289 289 289 289 289 290 290 290 290 290 291 291 291 291 291 291 291 291 291 291 291 290 291 291 291 291 291 292 292 292 292 292 292 292
286 285 285 285 285 285 285 285 285 285 285 284 284 284 284 284 284 284 284 284 284 285 285 285 285 285 285 285 285 285 285 285 286 286 286 286 286 286 287 287 287 287 287 287 287 287 288 288 288 288 288 288 289 289 289 289 289 290 290 290 290 290 290 290 290 290 290 290 290 290 290 290 290 290 290 290 291 291 291 291 291 292 292 292 292 292
286 285 285 285 285 285 285 285 285 285 284 284 284 284 284 284 284 284 284 284 285 285 285 285 285 285 285 285 285 285 284 285 285 285 285 285 286 286 286 286 286 286 286 287 287 287 287 287 288 288 288 288 288 289 289 289 289 289 289 289 289 289 289 289 289 289 289 289 289 289 289 290 290 290 290 290 290 291 291 291 291 291 291 291 292 292
285 285 285 285 285 285 285 285 284 284 284 284 284 284 284 284 284 284 284 285 285 285 285 285 285 285 285 284 284 284 284 284 284 285 285 285 285 285 285 286 286 286 286 286 287 287 287 287 287 288 288 288 288 288 288 289 289 289 289 289 289 289 289 289 289 289 289 289 289 289 289 289 289 290 290 290 290 290 290 290 291 291 291 291 291 291
285 285 285 285 285 285 284 284 284 284 284 284 284 284 284 284 284 284 285 285 285 285 285 285 285 284 284 284 283 283 283 283 284 284 284 284 284 285 285 285 285 286 286 286 286 287 287 287 287 287 288 288 288 288 288 288 288 288 288 288 288 288 288 288 288 288 288 288 289 289 289 289 289 289 289 289 290 290 290 290 290 291 291 291 291 291
285 285 285 285 285 284 284 284 284 284 284 284 284 284 284 284 285 285 285 285 285 285 284 284 283 283 283 283 283 283 283 283 283 283 283 283 284 284 284 285 285 285 286 286 286 286 287 287 287 287 287 287 288 288 287 287 287 287 287 287 287 287 287 287 287 288 288 288 288 288 288 289 289 289 289 289 289 289 290 290 290 290 291 291 291 291
285 285 285 285 284 284 284 284 284 284 284 284 284 284 284 285 285 285 285 284 284 283 283 283 283 283 283 283 283 283 283 283 283 283 283 283 284 284 284 285 285 285 285 286 286 286 286 286 287 287 287 287 287 287 287 287 287 286 286 286 286 287 287 287 287 287 287 287 288 288 288 288 288 289 289 289 289 289 290 290 290 290 291 291 291 291
285 285 284 284 284 284 284 284 284 285 285 285 285 285 285 285 285 285 284 283 283 282 282 282 282 283 283 283 283 283 283 283 283 283 284 284 284 284 284 285 285 285 285 285 286 286 286 286 286 286 286 286 286 286 286 286 286 286 286 286 286 286 286 286 286 287 287 287 287 288 288 288 288 289 289 289 290 290 290 290 290 290 291 291 291 291
285 285 284 284 284 284 284 285 285 285 285 285 285 285 285 285 284 283 283 282 282 282 282 282 283 283 283 283 283 283 283 283 283 283 283 284 284 284 284 284 284 285 285 285 285 285 285 285 285 285 285 285 285 285 285 285 285 285 285 285 285 285 286 286 286 286 287 287 287 288 288 288 289 289 289 290 290 290 290 290 290 290 290 291 291 291
285 284 284 284 284 285 285 285 285 285 284 284 284 284 284 283 283 283 282 282 282 282 282 282 283 283 283 283 283 283 283 283 283 283 283 284 284 284 284 284 284 284 284 284 284 284 284 284 284 284 284 284 284 284 284 284 284 284 285 285 285 285 285 286 286 287 287 287 288 288 288 288 289 289 289 289 290 290 290 290 290 290 290 290 291 291
285 284 284 285 285 285 286 285 285 284 284 284 283 283 283 283 283 282 282 282 282 282 282 283 283 283 283 283 283 283 283 283 284 284 284 284 284 284 284 284 284 284 284 284 284 283 283 283 283 283 283 283 283 283 284 284 284 284 284 284 285 285 286 286 286 287 287 287 288 288 288 288 288 289 289 289 289 289 290 290 290 290 290 290 291 291
285 285 285 286 286 286 285 285 284 284 284 283 283 283 283 283 283 282 282 283 283 283 283 283 283 283 283 283 283 284 284 284 284 284 284 284 284 284 284 284 284 284 283 283 283 283 283 283 283 283 283 282 282 282 282 283 283 283 284 284 285 285 286 286 286 287 287 287 287 288 288 288 288 288 289 289 289 289 289 289 290 290 290 290 291 291
285 286 286 286 286 285 285 284 284 283 283 283 283 283 283 283 283 282 282 283 283 283 283 283 283 283 283 284 284 284 284 284 284 284 284 284 284 284 284 284 283 283 283 283 283 282 282 282 282 282 282 282 282 282 282 283 283 284 284 285 285 285 286 286 286 287 287 287 287 287 288 288 288 288 288 289 289 289 289 289 289 290 290 290 290 290
286 286 286 286 285 284 284 284 283 283 283 283 283 283 283 283 282 282 282 283 283 283 283 283 283 284 284 284 284 284 284 284 284 284 284 284 284 283 283 283 283 283 282 282 282 282 282 282 282 282 282 282 282 282 282 283 283 284 284 285 285 285 286 286 286 286 286 287 287 287 287 288 288 288 288 288 289 289 289 289 289 289 290 289 290 290
286 286 285 284 284 284 283 283 283 283 283 283 283 283 283 283 282 282 283 283 283 283 283 283 284 284 284 284 284 284 284 284 284 284 283 283 283 283 283 282 282 282 282 282 282 282 282 281 281 281 281 281 282 282 283 283 284 284 284 285 285 285 285 286 286 286 286 287 287 287 287 287 288 288 288 288 288 289 289 289 289 289 289 289 289 289
285 285 284 284 284 284 283 284 283 283 283 283 283 283 283 283 283 283 283 283 283 283 283 284 284 284 284 284 284 284 284 284 283 283 283 283 283 282 282 282 282 282 282 282 281 281 281 281 281 281 281 282 282 282 283 283 284 284 284 284 285 285 285 286 286 286 286 286 287 287 287 287 287 288 288 288 288 288 288 289 289 289 289 289 289 289
284 284 284 284 284 284 284 284 284 283 283 283 283 283 283 283 283 283 283 283 283 284 284 284 284 284 284 284 284 284 283 283 283 282 282 282 282 282 282 282 281 281 281 281 281 281 281 281 281 281 281 282 282 282 283 283 283 284 284 284 285 285 285 285 286 286 286 286 286 287 287 287 287 287 287 288 288 288 288 288 288 289 289 289 289 289
284 284 284 284 284 284 284 284 284 283 283 283 283 283 283 283 283 283 284 284 284 284 284 284 284 284 284 284 284 283 283 282 282 282 282 282 282 282 281 281 281 281 281 281 281 281 281 281 281 281 281 281 282 282 282 283 283 284 284 284 285 285 285 285 286 286 286 286 286 286 287 287 287 287 287 287 288 288 288 288 288 288 289 289 289 289
284 284 284 284 284 284 284 284 284 283 283 283 283 283 283 283 284 284 284 284 284 284 284 284 284 284 283 283 283 282 282 282 282 282 281 281 281 281 281 281 281 281 281 281 281 281 281 281 281 281 281 281 282 282 283 283 283 284 284 284 285 285 285 285 285 286 286 286 286 286 286 287 287 287 287 287 287 287 288 288 288 288 288 289 289 289
284 284 284 284 284 284 284 284 284 283 283 283 283 283 284 284 284 284 284 284 284 284 284 284 283 283 282 282 282 282 282 282 281 281 281 281 281 281 281 281 281 281 281 281 281 281 281 281 281 281 281 281 282 282 283 283 283 284 284 284 284 285 285 285 285 285 286 286 286 286 286 286 286 287 287 287 287 287 288 288 288 288 288 288 288 288
285 285 285 284 284 284 284 284 284 284 284 284 284 284 284 284 284 284 284 284 284 283 283 282 282 282 282 282 282 281 281 281 281 281 281 281 281 281 281 281 281 281 281 281 281 281 281 281 281 281 281 281 282 282 282 283 283 283 284 284 284 284 285 285 285 285 285 285 286 286 286 286 286 287 287 287 287 287 287 287 287 287 288 288 288 288
285 285 284 284 284 284 284 284 284 285 285 285 285 285 285 285 284 284 284 283 283 282 282 282 282 281 281 281 281 281 281 281 281 281 281 281 281 281 281 281 281 281 281 281 281 281 281 281 281 281 281 281 282 282 282 283 283 283 284 284 284 284 284 285 285 285 285 285 285 286 286 286 286 286 286 287 287 287 287 287 287 287 287 287 288 288
284 284 284 284 285 285 285 285 286 286 286 286 286 286 285 284 284 283 283 282 282 282 282 281 281 281 281 281 281 281 281 281 281 281 280 281 281 281 281 281 281 281 281 281 281 281 281 281 281 281 281 281 281 282 282 282 283 283 283 284 284 284 284 284 285 285 285 285 285 285 286 286 286 286 286 286 286 286 287 287 287 287 287 287 287 287
284 285 285 285 285 285 285 286 286 286 285 285 284 284 283 283 283 283 282 282 282 281 281 281 281 281 281 280 280 280 281 281 281 281 281 281 281 281 281 281 281 281 281 281 281 281 281 281 281 281 281 281 281 282 282 282 282 283 283 283 283 284 284 284 284 285 285 285 285 285 285 285 285 286 286 286 286 286 286 287 287 287 287 287 287 287
284 285 285 285 285 285 285 284 284 284 284 283 283 283 283 283 283 282 282 282 281 281 281 281 281 280 280 280 280 280 280 281 281 281 281 281 281 281 281 281 281 281 281 281 281 281 281 281 281 281 281 281 281 281 281 282 282 282 283 283 283 283 284 284 284 284 284 284 284 285 285 285 285 285 285 286 286 286 286 286 287 287 287 287 287 287
284 284 284 284 284 284 283 283 283 283 282 282 282 282 282 282 282 282 282 281 281 281 281 280 280 280 280 280 280 280 280 280 281 281 281 281 281 281 281 281 281 281 281 281 281 281 281 281 281 281 281 281 281 281 281 281 282 282 282 282 283 283 283 283 283 283 284 284 284 284 284 285 285 285 285 286 286 286 286 286 287 287 287 287 287 287
284 283 283 283 282 282 282 281 281 281 281 281 282 282 282 282 282 282 281 281 281 281 280 280 280 280 280 280 280 280 281 281 281 281 281 281 281 281 281 281 281 281 281 281 281 281 281 281 281 281 281 281 281 281 281 281 281 282 282 282 282 282 282 282 283 283 283 283 284 284 284 284 285 285 285 285 286 286 286 286 286 286 286 286 287 286
282 282 281 281 281 281 281 281 281 280 281 281 281 282 281 281 281 281 281 280 280 280 280 280 280 280 280 280 281 281 281 281 281 281 281 281 280 281 281 281 281 281 281 281 281 281 281 281 281 281 281 281 281 281 281 281 281 281 281 281 281 282 282 282 282 283 283 283 283 284 284 284 284 285 285 285 285 285 285 286 286 286 286 286 286 286
281 281 281 281 281 281 281 281 280 280 280 281 281 281 281 281 281 280 280 280 280 280 280 280 280 280 281 281 281 281 281 281 281 281 280 280 280 280 280 281 281 281 281 281 281 281 281 281 281 281 281 281 281 281 281 281 281 281 281 281 281 281 281 282 282 282 283 283 283 283 284 284 284 284 284 285 285 285 285 285 285 286 286 286 286 286
281 281 281 281 281 281 280 280 280 280 280 280 280 280 280 280 280 281 280 280 280 280 280 280 280 280 280 280 280 280 281 281 280 280 280 280 280 280 281 281 281 281 281 281 281 281 281 281 281 281 281 281 281 281 281 281 281 281 281 281 281 281 281 282 282 282 282 282 283 283 283 283 283 284 284 284 284 284 285 285 285 285 285 285 286 286
281 281 281 281 281 280 280 280 280 280 280 280 280 280 280 280 280 280 280 280 280 280 280 280 280 280 280 280 280 280 280 280 280 280 280 280 280 280 280 280 280 280 280 280 280 280 281 281 281 281 281 281 281 281 281 281 281 281 281 281 281 281 281 281 282 282 282 282 282 282 282 283 283 283 283 283 284 284 284 284 285 285 285 285 285 285
280 280 280 280 280 280 281 280 280 280 280 280 280 280 280 280 280 280 280 280 280 280 280 280 280 280 280 280 280 280 280 280 280 280 280 280 280 280 280 280 280 280 280 280 280 280 280 280 281 281 281 281 281 281 281 281 281 281 281 281 281 281 281 281 281 281 281 282 282 282 282 282 282 282 283 283 283 283 284 284 284 285 285 285 285 285
280 280 280 280 280 280 280 280 280 280 280 280 280 280 280 280 280 280 280 280 280 280 280 280 280 280 280 280 280 280 280 280 280 280 280 280 280 280 280 280 280 280 280 280 280 280 280 280 280 281 281 281 281 281 281 281 281 281 281 281 281 281 281 281 281 281 281 281 281 282 282 282 282 282 282 282 282 283 283 284 284 284 285 285 285 286
280 280 280 280 280 280 280 280 280 280 280 280 280 280 280 280 280 280 280 280 280 280 280 280 280 280 280 280 280 280 280 280 280 280 280 280 280 280 280 280 280 280 280 280 280 280 280 280 280 281 281 281 281 281 281 281 281 281 281 281 281 281 281 281 281 281 281 281 281 282 282 282 282 282 282 282 282 283 283 284 284 285 285 285 286 286
280 280 280 280 280 280 280 280 280 280 280 280 280 280 280 280 280 280 280 280 280 280 280 280 280 280 280 280 280 280 280 280 280 280 280 280 280 280 280 280 280 280 280 280 280 280 280 280 280 281 281 281 281 281 281 281 281 281 281 281 281 281 281 281 281 281 281 281 282 282 282 282 282 282 282 283 283 283 284 284 284 284 285 285 285 285
280 280 280 280 280 280 280 280 280 280 280 279 279 279 279 279 279 279 279 279 279 279 279 279 279 279 279 280 279 280 279 279 279 279 279 279 279 279 280 280 280 280 280 280 280 280 280 280 280 281 281 281 281 281 281 281 281 281 281 281 281 281 281 281 281 281 282 282 282 282 282 282 282 283 283 283 283 283 283 283 283 283 284 284 284 284
280 280 280 280 280 280 280 280 279 279 279 279 279 279 279 279 279 279 279 279 279 279 279 279 279 279 279 279 279 279 279 279 279 279 279 279 279 279 279 279 280 280 280 280 280 280 280 280 280 280 281 281 281 281 281 281 281 281 281 281 281 281 281 281 282 282 282 282 282 282 282 282 282 283 283 283 283 283 283 283 283 283 283 283 283 284
280 280 280 280 280 280 279 279 279 279 279 279 279 279 279 279 279 279 279 279 279 279 279 279 279 279 279 279 279 279 279 279 279 279 279 279 279 279 279 279 279 280 280 280 280 280 280 280 280 280 280 281 281 281 281 281 281 281 281 281 281 282 282 282 282 282 282 282 282 282 282 282 282 283 283 283 283 283 283 283 283 283 283 283 283 283
280 280 279 279 279 279 279 279 279 279 279 279 279 279 279 279 279 279 279 279 279 279 279 279 279 279 279 279 279 279 279 279 279 279 279 280 280 280 280 279 279 279 280 280 280 280 280 280 280 280 280 280 281 281 281 281 281 281 281 281 282 282 282 282 282 282 282 282 282 282 282 282 283 283 283 283 283 283 283 283 283 283 283 283 283 283
279 279 279 279 279 279 279 279 279 279 279 279 279 279 279 279 279 279 279 279 279 279 279 279 279 279 279 279 279 280 280 280 280 280 280 280 280 280 280 280 280 280 280 280 280 280 280 280 280 280 280 280 281 281 281 281 281 281 281 281 281 282 282 282 282 282 282 282 282 282 282 283 283 283 283 283 283 283 283 283 283 283 283 283 284 284
279 279 279 279 279 279 279 279 279 279 278 278 278 278 279 279 279 279 279 279 279 279 279 279 279 279 279 279 280 280 280 280 280 280 280 280 280 280 280 280 280 280 280 280 280 280 280 280 280 280 280 281 281 281 281 281 281 281 281 281 282 282 282 282 282 282 282 282 282 282 283 283 283 283 283 283 283 283 283 283 283 283 283 284 284 284
279 279 279 279 279 279 279 279 278 278 278 278 278 279 279 279 279 279 279 279 279 279 279 279 279 279 279 280 280 280 280 280 280 280 280 280 280 280 280 280 280 280 280 280 280 280 280 280 280 281 281 281 281 281 281 281 281 281 281 282 282 282 282 282 282 282 282 282 283 283 283 283 283 283 283 283 283 283 283 283 283 283 283 283 284 284
278 279 279 279 279 279 278 278 278 278 278 278 278 278 279 279 279 279 279 279 279 279 279 279 279 279 280 280 280 280 280 280 280 280 280 280 280 280 280 280 280 280 280 280 280 280 280 281 281 281 281 281 281 281 281 281 281 281 282 282 282 282 282 282 282 282 282 283 283 283 283 283 283 283 283 283 283 283 283 283 283 284 284 284 284 284
278 279 279 279 278 278 278 278 278 278 278 278 278 278 278 279 279 279 279 279 279 279 279 279 279 279 280 280 280 280 280 280 280 280 280 280 280 280 280 280 280 280 280 280 281 281 281 281 281 281 281 281 281 281 281 282 282 282 282 282 282 282 282 282 282 283 283 283 283 283 283 283 283 283 283 283 283 284 284 284 284 284 284 284 284 284
278 278 278 278 278 278 278 278 278 278 278 278 278 278 278 279 279 279 279 279 279 279 279 279 279 279 279 280 280 280 280 280 280 280 280 280 280 280 281 281 281 281 281 281 281 281 281 281 281 281 281 281 281 282 282 282 282 282 282 282 282 282 282 282 283 283 283 283 283 283 283 283 283 283 283 284 284 284 284 284 284 284 285 285 285 285
278 278 278 278 278 278 278 278 278 278 278 278 278 278 278 279 279 279 279 279 279 279 279 279 279 279 279 279 280 280 280 280 280 280 280 280 280 281 281 281 281 281 281 281 281 281 281 281 281 281 281 281 282 282 282 282 282 282 282 282 282 282 283 283 283 283 283 283 283 283 283 283 283 284 284 284 284 284 285 285 285 285 285 285 285 285
278 278 278 277 277 277 278 278 278 278 278 278 278 278 278 279 279 279 279 279 279 279 279 279 279 279 279 279 280 280 280 280 280 280 280 280 281 281 281 281 281 281 281 281 281 281 281 281 282 282 282 282 282 282 282 282 282 282 282 282 283 283 283 283 283 283 283 283 284 284 284 284 284 284 284 284 285 285 285 285 285 285 285 285 285 285
277 277 277 277 277 277 277 277 277 278 278 278 278 278 278 279 279 279 279 279 279 279 279 279 279 279 279 279 280 280 280 280 280 280 281 281 281 281 281 281 281 281 281 281 282 282 282 282 282 282 282 282 282 282 282 282 283 283 283 283 283 283 283 283 284 284 284 284 284 284 284 284 285 285 285 285 285 285 285 285 285 285 285 285 285 285
277 277 277 277 277 277 277 277 277 277 278 278 278 278 278 278 278 279 279 279 279 279 279 279 279 279 279 279 280 280 280 280 280 280 281 281 281 281 281 281 281 281 281 281 282 282 282 282 283 283 283 283 283 283 283 283 283 283 283 284 284 284 284 284 284 284 284 284 284 285 285 285 285 285 285 285 285 285 285 285 285 285 284 284 284 284
Wind_Speed
15 16 17 18 19 19 20 20 21 22 23 24 24 25 25 25 26 26 27 27 26 26 26 27 27 27 27 26 26 25 25 24 24 24 24 24 24 25 25 25 25 25 25 25 25 25 25 25 25 25 25 25 25 25 25 25 25 25 25 25 25 25 25 25 25 25 26 26 26 26 26 26 26 27 27 27 28 28 28 28 28 28 29 29 29 29
15 16 17 17 17 18 19 20 20 21 22 23 24 24 25 26 27 27 27 26 26 26 26 27 27 27 27 26 26 25 25 24 24 24 24 24 25 25 25 25 26 26 26 26 26 26 26 25 25 25 25 25 25 25 25 25 25 25 25 25 25 25 25 25 25 26 26 26 26 26 27 27 27 28 28 28 28 28 28 29 29 29 29 29 30 30
15 16 16 17 17 18 19 20 20 20 21 22 23 24 25 26 27 26 26 26 26 26 26 26 26 27 26 26 26 25 24 24 23 24 24 24 25 25 26 26 26 26 26 26 26 26 25 25 25 25 25 25 25 25 25 25 25 25 25 25 25 25 26 26 26 26 26 26 27 27 27 27 28 28 28 28 28 29 29 29 29 29 30 30 30 30
15 16 17 17 17 17 18 19 20 20 20 22 23 24 24 25 26 25 25 26 26 26 26 26 25 25 25 25 25 25 24 23 23 24 24 25 25 26 27 27 27 27 26 26 26 26 25 25 25 25 25 25 25 25 25 26 25 25 26 26 26 26 26 26 27 27 27 27 27 27 27 27 28 28 28 28 28 28 28 29 29 29 29 29 30 30
15 15 17 17 17 17 18 18 19 20 21 21 22 23 23 24 24 25 25 25 25 25 25 24 24 24 24 25 25 25 24 23 23 24 25 25 26 27 27 27 27 26 26 26 26 26 25 25 25 25 25 26 26 26 26 26 26 26 26 26 27 27 27 27 27 27 27 27 27 27 27 27 27 27 27 27 27 27 27 28 28 28 28 29 29 29
15 15 16 17 17 18 18 19 19 20 21 21 22 22 23 23 24 24 24 24 24 24 23 23 23 23 24 24 24 24 24 23 24 24 25 26 26 27 27 27 26 26 26 25 25 25 25 25 25 25 26 26 26 26 26 26 27 27 27 27 27 27 27 27 27 27 26 26 26 26 26 26 26 26 26 26 26 27 27 27 27 28 28 28 28 29
16 16 16 17 17 18 18 19 19 19 20 21 22 23 23 22 22 22 22 22 22 22 22 23 23 23 23 24 24 24 24 24 25 25 25 26 26 26 26 25 25 25 25 25 25 25 25 26 26 26 26 26 26 26 27 27 27 27 28 27 27 27 27 26 26 26 25 25 25 25 25 25 25 25 26 26 26 26 26 26 27 27 27 28 28 28
17 17 17 17 18 19 19 19 18 19 20 21 23 23 23 22 21 20 20 20 20 21 22 22 23 23 23 24 24 24 25 25 26 26 26 25 25 25 25 25 25 25 25 25 25 25 25 26 26 26 26 26 27 27 28 28 28 28 27 27 26 26 26 25 25 25 24 24 24 24 24 24 24 25 25 25 25 26 26 26 26 27 27 27 28 28
17 18 18 17 18 19 20 19 19 19 20 21 21 21 21 21 20 19 19 19 20 20 21 22 23 24 24 24 24 24 25 25 25 25 25 25 25 25 25 25 24 24 24 24 25 25 25 26 26 27 27 27 28 28 28 28 28 27 27 26 26 25 25 24 24 24 24 24 24 24 24 24 24 24 25 25 25 26 26 26 27 27 27 28 28 28
16 17 18 19 18 19 19 20 20 19 19 20 20 19 18 18 19 20 21 21 21 21 21 22 23 23 24 24 24 24 24 24 24 24 24 24 24 24 24 24 24 24 24 24 25 25 26 27 27 27 28 28 29 29 28 28 27 27 26 25 25 25 24 24 24 24 24 24 24 24 24 24 24 25 25 26 26 26 27 27 27 27 28 28 28 29
16 18 18 19 19 18 17 18 18 18 18 19 18 16 15 16 18 20 21 22 23 22 22 21 21 22 23 24 24 24 25 25 25 25 24 24 24 24 23 23 23 23 24 24 25 26 27 27 28 28 28 28 28 28 27 27 26 26 25 25 25 25 24 24 24 24 24 24 24 24 25 25 25 26 26 27 27 27 27 27 28 28 28 28 29 29
17 18 18 19 18 17 15 15 15 16 17 17 17 16 16 17 18 19 21 22 23 23 22 22 21 22 23 24 25 25 25 25 25 25 24 23 23 22 22 22 23 24 25 25 26 27 27 28 28 28 28 28 27 27 26 26 26 26 26 25 25 25 24 24 24 24 24 24 25 25 26 26 26 27 27 27 27 28 28 28 28 28 28 29 29 29
18 18 18 17 16 14 12 13 15 17 17 17 16 17 18 19 19 20 20 21 22 22 23 23 22 23 23 24 24 24 24 24 24 23 22 21 21 21 21 22 24 25 26 27 27 28 28 28 28 27 27 27 27 27 27 26 26 26 26 26 25 25 25 25 25 25 25 25 26 26 26 27 27 27 27 27 27 28 28 28 28 28 29 29 29 30
18 17 16 14 12 11 12 15 17 17 17 17 17 17 19 20 20 20 20 20 21 22 22 23 23 23 23 23 22 22 22 22 22 21 20 20 20 21 22 24 25 26 26 27 27 28 28 28 27 28 28 28 28 28 28 28 27 27 26 26 26 26 26 26 26 26 26 27 27 27 27 27 27 27 28 28 28 28 28 28 29 29 29 29 30 30
16 14 11 10 10 12 15 17 18 18 18 18 18 18 19 19 19 19 19 20 21 22 22 22 23 22 21 20 20 20 20 20 19 20 20 21 21 22 24 25 25 26 26 27 27 28 28 28 28 28 29 30 30 30 29 28 27 27 27 27 27 27 27 27 27 27 27 28 28 28 28 28 28 28 28 28 28 29 29 29 29 30 30 30 31 30
12 9 8 10 13 16 18 18 18 18 18 18 18 18 18 18 18 18 19 20 21 21 21 20 20 21 20 19 19 18 19 19 19 20 22 23 24 24 24 25 25 26 26 27 27 28 28 28 28 28 29 30 30 29 28 27 27 28 28 28 28 28 28 28 28 28 28 28 28 28 28 28 28 28 28 28 29 29 29 29 30 30 31 31 31 31
10 10 11 14 16 18 19 18 18 18 18 18 18 18 18 18 19 19 19 20 21 20 19 18 15 13 15 19 20 18 18 19 20 22 23 25 26 25 24 24 25 26 27 27 27 27 27 27 27 28 29 29 29 28 28 28 28 29 29 29 29 29 29 29 29 29 29 29 29 29 29 29 29 29 29 29 29 29 29 29 30 30 30 31 31 31
13 14 16 17 18 18 18 18 17 17 17 18 18 18 18 19 20 20 20 21 20 19 18 17 15 12 11 15 19 20 20 21 23 24 25 27 27 26 24 23 24 25 26 26 26 26 26 27 27 28 29 29 29 29 29 29 30 30 30 30 30 30 30 30 30 30 30 30 30 30 29 29 29 30 30 30 29 29 29 29 29 30 30 30 31 31
16 17 17 17 18 18 18 17 17 17 17 18 18 19 20 20 21 21 21 21 20 19 18 16 16 16 15 17 21 23 23 23 24 25 25 27 27 26 24 23 23 24 25 26 26 26 26 27 28 29 29 29 29 29 29 30 30 30 30 30 31 31 31 31 31 30 30 30 30 30 30 30 30 30 30 30 30 30 29 29 29 29 30 30 30 31
18 18 17 18 18 18 17 17 17 18 18 19 20 20 21 22 22 21 21 20 19 17 16 15 16 17 18 20 23 25 25 24 24 24 24 25 26 25 23 22 22 23 25 25 26 26 26 27 28 29 30 30 30 29 29 30 30 30 31 31 31 31 31 31 31 31 31 31 31 31 31 31 30 30 30 30 30 30 30 30 29 30 30 30 30 30
19 18 18 18 18 17 17 18 19 19 20 21 22 22 22 22 22 21 20 18 17 16 15 14 15 18 21 23 26 27 26 24 23 22 23 23 24 24 22 21 21 23 24 25 25 25 25 26 28 29 30 30 30 30 30 30 31 31 31 31 31 32 32 31 31 31 31 31 31 31 31 31 31 30 30 30 30 30 30 30 30 30 30 30 30 31
19 19 19 18 18 18 19 20 21 22 23 24 24 23 23 22 20 19 17 16 15 15 15 17 19 22 24 26 27 27 26 23 21 21 21 20 22 23 22 20 21 22 24 25 25 25 25 26 27 29 30 30 30 30 30 31 31 31 31 31 31 32 32 32 32 32 31 31 31 31 31 31 31 31 31 30 30 31 30 31 31 31 31 31 31 31
19 19 19 19 19 20 21 22 24 25 26 26 26 25 23 22 20 18 17 16 16 18 20 22 24 25 25 25 25 25 24 22 21 20 18 16 19 22 22 21 20 22 23 24 25 25 25 26 27 28 29 30 30 30 30 30 31 31 31 31 31 32 32 32 32 31 31 31 31 31 31 31 31 31 31 31 31 31 31 31 31 31 31 31 31 30
19 19 20 20 20 21 22 23 24 25 25 25 24 23 21 19 18 18 19 19 21 22 23 24 24 23 23 22 22 22 22 20 19 18 17 16 19 22 22 21 21 22 24 25 25 25 25 26 27 28 28 29 30 30 30 30 30 30 31 31 31 31 32 32 32 31 31 31 31 31 31 31 31 31 31 31 31 31 31 31 31 31 31 31 30 30
20 20 21 21 20 20 21 22 23 23 23 22 21 20 20 21 22 23 24 23 23 22 21 21 20 20 20 20 20 20 20 19 18 17 17 17 19 22 22 21 21 22 24 25 25 25 25 26 26 27 28 29 29 30 30 30 30 30 30 31 31 31 31 31 31 31 31 31 31 32 32 32 32 32 32 32 32 31 31 31 31 31 30 30 30 31
20 20 20 20 20 21 21 22 22 23 23 23 24 24 24 24 23 23 22 21 19 19 18 18 17 18 20 19 19 20 20 19 18 17 17 17 19 22 23 21 21 22 24 25 25 24 24 25 26 27 28 28 29 29 29 29 29 29 30 30 30 31 31 31 32 32 32 32 32 32 32 32 32 32 32 32 31 31 31 31 30 30 30 30 30 31
19 19 19 19 20 20 21 22 22 23 23 23 23 22 21 20 20 19 18 18 17 16 16 15 14 15 18 18 18 20 21 20 19 18 18 18 19 21 22 21 21 21 23 25 25 25 24 25 26 27 27 28 28 29 29 28 28 28 29 29 30 30 31 32 32 32 33 33 33 33 32 32 32 32 32 31 31 31 31 31 30 30 30 30 30 30
17 17 18 18 19 19 20 21 22 23 22 22 21 20 18 18 17 16 16 17 17 16 16 14 13 12 14 16 19 21 22 21 20 19 18 18 17 19 21 22 21 21 23 24 26 26 25 25 25 26 27 27 27 27 27 27 27 27 28 29 30 31 32 32 33 33 32 32 32 32 32 32 32 32 32 31 31 31 31 31 30 30 30 29 28 27
16 16 17 18 19 20 21 22 22 21 20 19 17 16 16 16 16 16 17 18 17 17 16 16 15 15 15 18 21 23 23 21 20 18 17 16 16 19 22 21 21 21 21 23 25 27 25 24 23 23 24 25 25 25 25 26 27 28 29 30 31 32 32 32 32 32 32 32 32 32 32 32 32 32 32 32 31 31 31 30 30 29 29 27 26 26
17 19 21 22 23 23 22 21 21 19 17 16 16 15 15 15 16 17 19 18 18 17 17 17 17 17 17 18 18 17 18 19 18 16 15 15 16 19 22 22 21 21 20 18 16 17 21 24 23 21 21 22 23 24 25 26 27 28 29 30 31 31 31 31 31 31 31 31 32 32 32 32 32 32 31 31 31 31 30 30 29 28 27 26 26 26
21 23 24 25 25 23 22 20 19 18 17 16 16 16 16 16 17 18 18 18 17 17 17 17 17 18 17 14 10 7 9 18 19 16 16 15 17 19 21 21 21 21 20 15 7 4 11 18 22 23 21 22 24 25 26 27 27 28 28 29 30 30 30 30 30 30 31 31 31 31 31 31 31 31 31 31 31 31 30 30 29 28 27 26 25 25
24 25 25 25 24 22 20 19 18 18 17 17 17 17 16 16 16 17 17 17 17 17 17 18 18 18 18 16 11 9 13 21 22 20 18 17 18 20 21 20 21 22 21 19 14 9 8 9 17 25 24 24 25 26 26 27 27 27 28 29 29 30 30 30 30 29 30 30 30 30 31 31 31 31 31 31 31 30 30 30 29 27 26 25 25 24
24 24 24 23 21 20 19 18 18 18 18 18 17 17 17 16 16 16 16 16 16 17 17 18 19 19 19 20 19 19 22 25 24 22 19 18 18 19 21 21 21 22 22 22 21 19 15 14 20 26 27 26 26 25 26 26 27 27 28 28 29 30 30 29 29 29 29 30 30 30 31 30 30 30 30 30 30 30 29 29 28 27 26 25 24 24
23 22 21 20 19 19 18 18 18 18 18 17 17 16 16 16 16 16 16 17 17 18 18 19 19 19 20 20 21 23 25 26 24 21 19 19 19 20 22 22 22 22 22 21 22 21 21 22 23 24 24 26 27 26 26 26 26 27 27 28 29 29 30 29 29 29 29 30 30 30 30 30 30 30 29 29 29 29 28 28 27 26 26 25 25 24
20 20 19 18 17 17 18 18 18 17 17 17 16 16 16 17 17 18 18 18 18 19 19 20 20 20 21 20 21 23 25 27 25 23 21 20 20 21 22 23 22 21 21 21 21 20 20 22 24 23 22 24 26 27 26 26 26 27 28 28 28 28 29 29 29 29 29 29 30 30 30 30 30 30 29 29 29 28 27 27 27 26 26 26 26 25
18 17 17 16 16 16 17 17 17 17 17 17 17 17 17 18 18 19 19 20 20 20 20 21 21 22 23 23 23 24 27 28 28 26 24 23 23 22 22 23 23 22 21 21 21 20 19 21 23 24 23 21 22 24 27 27 26 27 27 28 28 28 28 28 28 28 28 29 29 29 29 29 29 29 29 29 28 28 28 27 27 27 27 27 27 27
15 16 15 15 16 16 16 17 17 17 17 18 18 18 19 19 19 20 20 21 22 22 22 23 23 23 24 25 26 27 28 29 29 28 28 27 26 25 24 24 25 24 22 21 21 21 21 20 21 22 22 20 19 21 25 27 28 27 28 28 28 28 28 28 28 27 28 28 28 29 29 28 28 28 28 28 28 28 28 28 28 28 27 27 27 28
14 15 15 16 16 16 16 17 17 17 18 18 19 19 20 21 21 21 21 22 22 23 23 23 23 24 25 26 28 29 31 32 32 32 32 31 30 28 26 26 26 25 23 23 23 23 22 18 15 13 14 19 22 24 26 27 27 28 29 29 29 28 29 28 27 27 27 27 27 28 28 27 27 27 28 28 28 28 28 28 28 28 27 27 27 27
14 15 16 16 16 16 16 17 17 18 19 20 20 21 21 22 22 22 21 21 22 22 22 23 24 25 27 28 29 30 30 31 32 32 33 32 31 30 28 26 26 26 25 25 24 24 23 20 16 13 12 16 22 26 27 27 27 28 29 29 29 29 28 27 26 25 25 26 26 27 27 27 27 27 28 28 28 27 27 27 27 27 26 26 26 27
15 15 16 16 16 16 17 17 18 19 20 21 21 21 21 21 21 21 21 21 21 22 23 23 24 25 26 27 27 27 28 30 31 31 31 31 31 30 28 27 27 27 26 26 25 25 24 23 22 23 23 21 22 24 26 27 28 28 27 26 26 27 28 27 27 27 27 27 27 27 28 28 27 27 27 27 27 27 26 26 27 27 26 25 25 25
15 16 16 16 16 17 17 18 19 19 20 20 20 21 21 20 21 21 22 22 22 22 22 23 24 25 26 26 27 27 27 28 28 29 29 29 30 30 30 29 28 27 27 26 25 25 25 24 25 25 26 25 25 26 27 28 29 29 27 25 26 28 30 30 28 27 27 27 27 27 27 27 27 26 26 26 27 27 27 27 27 28 28 27 25 24
15 16 16 17 17 18 18 19 19 19 19 19 19 20 20 20 20 21 21 22 23 23 22 22 23 24 26 27 27 26 26 26 26 27 27 27 28 28 29 29 29 28 27 26 26 26 26 25 25 25 26 25 25 25 26 29 30 29 27 26 27 29 29 30 28 27 25 25 26 26 26 26 26 26 26 27 27 28 28 28 28 28 27 27 26 26
16 16 17 18 18 18 18 19 19 19 19 19 19 19 19 20 20 20 21 21 22 23 23 22 22 23 24 26 27 27 27 27 26 25 25 26 26 26 27 28 29 29 29 27 25 26 27 27 26 26 26 26 26 25 26 28 30 30 29 28 27 24 21 25 27 27 25 25 25 25 26 26 26 26 27 27 27 28 28 28 28 28 28 28 28 28
17 17 18 18 18 18 19 19 19 19 19 19 19 20 20 20 20 20 21 21 22 22 22 22 22 22 23 24 26 27 28 28 26 25 25 24 25 25 26 27 28 29 29 27 25 25 26 26 27 27 27 26 26 25 26 28 29 29 29 29 27 25 23 25 27 28 27 26 26 26 26 26 27 27 27 27 27 28 28 28 29 29 29 30 30 29
17 18 17 18 18 18 19 19 19 19 19 20 20 20 20 20 20 20 20 21 22 22 22 22 21 21 21 23 24 26 27 28 28 27 25 25 24 24 24 25 26 27 28 27 26 26 25 25 27 28 28 26 26 26 26 27 28 28 29 29 28 27 28 29 28 27 26 26 27 27 27 27 26 26 26 27 27 27 26 26 26 27 29 29 29 30
16 17 17 18 18 18 19 19 20 20 20 20 20 20 20 21 20 20 20 21 21 21 22 21 20 19 20 22 23 24 26 27 28 28 27 26 25 24 24 25 25 26 27 27 28 28 27 27 28 28 28 27 27 28 28 28 27 27 28 28 28 27 28 28 28 27 26 26 27 27 28 27 26 25 25 27 28 28 27 26 26 26 27 27 28 29
16 17 17 18 18 19 19 19 19 19 20 20 20 20 20 20 20 20 21 20 20 21 21 21 20 19 20 21 22 23 23 25 27 29 29 28 27 27 26 25 25 25 26 26 27 28 29 30 30 28 27 25 26 27 29 29 28 27 27 28 27 27 27 27 28 28 27 27 27 28 29 28 27 27 27 27 28 28 28 27 26 26 26 26 27 28
16 17 17 18 19 19 19 19 19 19 19 20 21 21 21 20 20 20 20 21 20 20 20 20 20 20 21 22 22 23 23 24 25 27 28 28 28 28 27 26 25 25 25 26 26 27 28 30 30 30 28 26 25 25 28 30 29 28 27 27 26 26 26 28 29 29 28 27 28 29 28 27 26 25 26 26 26 27 27 26 25 25 25 25 26 27
17 17 18 18 18 18 19 19 19 19 19 20 21 21 22 21 21 20 20 21 21 20 20 20 20 20 21 22 23 24 24 24 25 26 27 27 27 27 27 27 26 26 26 26 26 27 27 28 28 28 28 28 27 27 28 29 29 29 28 27 26 25 26 27 29 29 28 27 28 28 28 26 25 25 24 24 25 26 26 26 26 26 26 26 26 27
17 17 17 18 18 18 19 19 19 19 19 20 21 21 22 22 22 21 21 20 20 20 19 19 20 20 21 22 23 24 24 24 25 25 26 27 26 26 26 26 26 26 26 26 26 25 25 24 24 24 24 25 26 27 28 29 29 29 28 27 26 25 25 26 28 29 28 27 27 27 27 26 25 24 23 23 24 25 27 27 28 27 26 26 26 28
17 17 17 17 18 18 18 19 19 19 20 20 21 21 22 22 22 22 21 21 20 20 20 20 20 20 21 22 23 24 24 24 24 25 26 27 26 25 25 25 25 24 23 22 21 20 19 17 17 20 22 22 22 23 25 27 27 26 26 26 26 26 25 26 27 28 27 27 26 26 25 24 24 23 22 21 21 22 24 26 27 27 26 25 25 26
Wind_Direction
298 301 305 307 309 308 307 307 308 308 308 309 310 311 311 312 312 312 313 312 313 313 313 312 312 312 312 311 310 308 305 303 302 302 301 301 300 300 301 300 300 300 300 300 300 299 299 298 297 297 296 296 295 295 294 293 293 292 291 290 290 289 289 288 288 287 287 287 286 286 287 287 287 287 286 286 285 285 284 283 282 281 281 281 281 281
302 304 306 309 309 308 306 306 307 307 307 308 309 310 311 311 311 311 311 311 311 311 311 310 310 310 310 309 309 307 305 302 301 301 300 300 300 300 300 300 300 300 300 300 299 299 298 298 297 297 297 296 296 295 294 294 293 292 292 291 290 290 289 289 288 287 287 287 287 287 287 287 286 285 284 283 283 282 281 280 279 279 279 279 278 278
306 308 308 310 309 307 305 306 307 307 307 307 308 309 310 310 310 309 309 309 310 309 309 309 308 308 308 308 307 306 304 302 301 300 300 299 299 300 300 300 300 300 300 300 299 299 298 298 298 297 297 296 296 295 295 294 294 293 293 292 291 291 290 290 289 289 289 289 288 288 287 286 285 284 283 282 281 281 280 279 278 278 277 277 277 276
308 309 310 311 310 307 305 306 306 307 307 307 307 308 309 309 308 308 308 308 308 308 308 308 307 307 306 306 306 306 304 301 300 299 299 299 299 299 299 299 299 299 299 299 299 298 298 298 297 297 296 296 296 295 295 295 294 294 294 293 293 292 292 291 291 290 290 289 288 287 286 285 284 283 282 281 280 280 279 279 278 277 277 277 276 275
308 309 311 312 310 307 305 306 306 307 307 307 307 308 308 307 306 306 306 306 306 306 306 306 306 306 305 305 305 304 303 301 299 298 298 298 298 298 298 298 298 298 298 298 298 297 297 297 297 296 296 296 296 295 295 295 295 295 295 294 294 294 293 293 292 291 290 289 288 286 285 283 282 282 281 281 280 279 278 278 277 277 276 276 275 274
307 309 311 310 307 306 306 306 306 307 308 307 307 308 307 307 306 305 305 305 305 305 305 305 305 305 304 304 304 304 302 300 298 298 298 298 297 297 297 297 297 297 297 297 297 297 296 296 296 296 296 295 295 295 296 296 296 295 295 295 295 294 293 293 292 291 290 289 287 285 284 283 282 281 281 280 280 279 279 278 277 277 276 275 275 274
307 308 309 308 305 304 304 304 305 306 307 307 308 308 308 307 306 305 304 305 305 306 306 306 305 305 304 304 303 302 301 299 298 297 297 297 297 296 296 296 296 296 296 296 296 296 296 295 295 295 295 295 295 296 296 296 296 295 295 295 294 293 293 292 291 289 288 287 286 285 284 283 282 282 281 280 280 279 279 278 277 277 276 276 275 274
306 307 308 307 305 304 303 302 303 304 306 306 307 308 308 308 306 305 305 306 307 307 307 307 306 305 304 303 302 301 300 299 298 298 297 297 297 296 296 296 296 296 296 296 296 296 295 295 295 295 295 296 296 296 296 296 295 295 295 294 294 293 292 291 290 289 288 287 286 285 284 283 283 282 282 281 280 280 279 278 277 277 276 276 275 275
304 305 306 305 304 304 304 303 303 304 305 305 304 304 304 306 306 307 308 308 308 308 308 308 306 304 303 302 301 300 299 298 297 297 297 296 296 296 296 296 296 296 296 296 296 296 296 296 296 296 296 296 296 296 296 296 296 295 295 294 294 293 292 291 290 289 288 287 286 285 284 284 283 282 282 281 281 280 279 278 277 277 277 276 276 275
301 302 303 302 301 300 299 300 302 304 305 304 302 300 299 303 308 311 312 310 309 309 308 306 305 304 303 303 302 301 300 298 296 295 295 294 294 294 294 294 295 295 296 296 297 296 296 296 296 296 296 296 295 295 295 295 295 295 294 294 294 293 292 291 290 289 288 288 287 285 285 284 283 282 282 281 281 280 279 279 278 278 277 277 276 276
301 301 301 299 298 296 292 293 297 303 307 308 305 301 301 305 310 313 313 311 310 309 307 305 304 303 303 303 303 302 300 298 297 296 295 295 295 295 294 294 294 295 296 297 297 297 296 296 296 296 296 295 295 295 295 295 295 295 294 294 293 292 292 291 290 290 289 288 286 285 285 284 283 283 283 282 281 280 280 279 279 278 278 277 277 276
301 300 298 295 294 292 290 292 299 306 311 311 310 309 308 309 311 310 308 307 307 307 306 305 303 301 301 301 302 301 300 298 297 297 297 298 298 298 298 298 298 298 298 298 297 297 296 296 296 296 296 295 295 295 295 295 295 294 294 293 293 292 292 291 291 290 289 288 287 286 285 285 285 284 284 283 282 281 281 280 280 279 278 277 277 276
298 295 291 289 288 289 294 302 309 312 313 312 312 311 310 310 309 307 304 302 302 303 304 304 302 301 300 300 300 300 299 298 298 298 299 300 301 302 302 302 302 302 301 300 299 298 297 298 298 297 296 295 295 295 295 294 294 294 294 293 293 292 292 291 291 290 289 288 288 287 287 286 286 285 285 284 284 283 282 281 280 280 279 278 277 277
293 289 285 283 285 292 303 310 312 311 310 310 308 307 307 307 307 306 303 300 300 301 302 301 301 300 301 301 300 300 300 299 300 301 301 301 302 303 304 304 303 302 301 300 299 298 298 299 298 297 297 296 295 295 296 296 296 295 294 294 293 293 292 292 291 290 290 289 289 288 288 287 286 285 285 284 284 283 282 282 281 281 280 279 279 278
287 285 284 286 294 303 309 310 309 307 306 306 306 306 306 306 305 304 302 301 301 302 302 301 300 300 301 301 302 303 303 303 304 304 304 303 303 304 305 304 303 301 300 299 298 298 298 298 298 297 297 296 296 297 297 296 295 295 294 294 293 293 293 292 292 291 290 290 289 289 288 287 286 286 285 284 284 283 282 282 282 281 280 279 279 278
288 291 298 304 306 307 307 306 305 303 303 304 305 306 305 304 303 302 300 299 300 301 302 302 302 302 302 303 305 307 309 309 309 307 306 304 303 304 305 304 302 301 300 299 298 297 298 298 297 297 297 296 296 297 296 294 294 294 294 294 294 293 293 292 292 291 290 290 289 288 288 287 286 286 285 285 284 283 283 282 282 282 281 279 279 278
302 308 309 308 306 304 303 302 301 300 301 303 303 302 301 299 298 297 296 296 297 298 297 298 300 303 304 306 307 309 312 313 312 309 306 303 303 304 304 303 301 300 299 297 297 297 297 297 297 297 296 296 296 296 295 295 294 294 294 293 293 293 293 292 292 291 291 290 289 289 288 287 286 286 286 285 284 284 283 283 282 281 281 280 279 278
307 306 304 302 300 299 300 300 299 299 301 302 301 299 297 295 293 292 292 291 291 291 292 293 294 297 300 303 305 309 313 314 312 309 305 302 302 303 304 302 300 298 297 296 295 296 296 296 296 296 296 296 295 294 294 294 293 293 293 293 293 293 292 292 292 292 291 290 290 289 288 288 287 286 286 285 285 284 284 283 282 281 281 280 279 278
303 301 299 297 296 296 297 297 298 299 300 299 298 297 295 293 291 289 288 288 287 287 287 289 291 292 294 297 301 306 310 312 310 307 303 301 301 302 303 302 299 296 295 294 294 295 296 296 296 296 296 295 294 293 293 293 293 293 293 293 292 292 292 292 292 292 291 291 290 290 289 288 288 287 286 286 285 284 284 283 282 281 280 280 279 279
299 297 295 294 294 294 294 294 295 296 296 295 294 292 291 290 289 288 287 286 286 286 285 285 288 293 297 299 301 304 308 309 308 304 301 299 299 301 302 301 298 296 294 293 294 295 295 295 296 296 296 295 295 294 294 293 293 293 293 293 293 293 292 292 292 292 291 291 290 290 289 289 288 287 287 286 285 284 284 283 282 281 280 279 279 279
294 292 290 291 291 292 292 292 293 293 293 292 290 288 287 288 288 288 288 289 289 289 289 289 292 297 300 300 300 302 304 306 304 301 299 298 297 298 300 300 298 295 293 293 294 295 295 295 295 295 295 295 295 294 294 293 293 293 292 292 292 292 292 292 292 292 291 291 291 290 290 289 288 287 287 286 285 284 283 282 281 281 280 280 280 279
288 287 288 289 288 287 288 290 290 290 290 288 285 283 283 284 285 287 289 292 293 295 297 297 298 299 299 297 297 298 300 300 299 297 298 296 295 296 299 299 297 294 293 293 295 296 296 295 294 294 294 294 293 293 293 293 293 293 293 293 293 293 293 292 292 292 292 291 291 290 290 289 288 287 286 285 285 284 284 283 282 281 281 281 280 279
284 285 288 289 288 286 286 286 287 288 287 284 281 278 278 278 281 285 291 296 299 301 301 300 298 297 296 294 294 296 297 297 295 294 294 291 292 295 299 300 298 295 293 294 295 297 296 295 293 293 293 293 293 293 293 293 292 292 293 293 293 293 293 293 292 292 292 291 291 290 289 289 288 287 287 287 286 286 285 284 283 283 282 281 281 280
287 287 288 288 288 287 287 286 287 289 289 289 287 286 288 290 294 299 302 303 302 302 301 300 299 298 296 295 295 296 296 296 296 294 290 288 289 293 297 299 298 295 294 294 296 297 296 295 293 292 292 292 292 292 292 293 292 292 292 293 293 293 293 292 292 292 291 291 291 290 290 290 289 289 289 288 288 287 286 285 284 283 282 282 281 280
290 290 289 289 290 290 291 292 293 296 299 302 306 309 309 308 305 302 300 300 300 301 302 302 300 299 298 299 298 297 297 298 297 294 289 287 289 292 295 297 296 295 295 296 297 298 297 295 293 292 292 291 291 291 291 292 292 292 292 292 292 292 292 292 292 292 291 291 291 291 290 290 290 289 289 288 288 287 286 285 284 283 282 282 281 279
291 289 289 290 291 291 293 294 297 299 302 304 305 304 304 303 302 301 300 299 301 303 304 302 299 297 299 299 298 297 298 300 299 295 290 289 290 292 294 296 295 294 295 297 298 298 297 295 294 293 292 291 290 290 290 291 291 291 292 292 292 292 292 292 291 291 291 291 291 291 290 290 289 289 288 288 287 287 286 285 284 284 283 282 281 280
290 289 288 290 291 292 294 295 296 297 298 298 298 299 300 302 302 301 299 299 301 303 302 299 297 297 298 298 296 296 298 299 298 295 291 289 289 290 292 295 296 296 296 297 298 297 296 294 293 292 291 290 289 289 290 290 291 291 292 292 292 292 291 291 291 291 291 291 291 290 290 289 289 289 288 287 287 286 286 285 285 284 284 283 283 281
292 291 290 292 293 294 295 296 297 297 297 297 298 298 300 301 300 297 295 297 299 299 295 293 293 295 296 295 295 296 297 296 295 294 292 289 286 286 291 295 297 297 297 298 298 297 294 291 290 289 289 289 289 290 290 291 291 291 291 291 291 291 291 290 290 290 290 290 290 290 289 289 288 288 288 287 287 286 286 286 285 285 285 284 283 281
296 294 295 296 297 298 299 300 301 301 300 299 299 300 299 298 296 293 292 294 295 293 289 288 288 289 291 294 295 296 295 293 293 294 295 292 286 286 291 296 298 298 299 300 300 299 296 292 290 289 289 290 291 291 292 292 292 291 291 291 291 290 290 290 290 290 290 290 290 289 289 288 288 288 287 287 287 286 286 286 286 286 286 285 283 281
301 302 302 303 304 305 306 307 308 308 305 301 300 299 298 294 290 288 288 289 288 286 285 285 285 287 290 294 296 296 294 293 295 299 301 296 290 290 294 297 297 298 300 301 302 301 298 297 295 293 292 293 293 293 292 292 292 291 291 291 290 290 290 290 290 290 290 290 290 289 288 288 287 287 287 287 286 286 286 286 286 286 285 284 282 280
307 308 309 310 311 312 314 314 314 311 307 303 300 299 296 292 288 286 285 284 282 280 280 282 283 285 287 291 294 294 292 294 297 301 303 297 291 290 294 296 296 296 297 297 297 301 301 301 300 299 297 296 294 293 293 292 291 291 290 290 289 289 289 290 291 291 290 290 289 288 288 287 287 287 286 286 286 286 285 285 285 285 284 283 281 279
310 311 312 313 315 316 317 316 313 310 307 304 302 301 299 295 291 288 286 284 281 278 278 280 282 283 284 283 281 280 284 290 295 299 300 295 290 290 293 294 294 295 295 292 288 286 294 298 300 300 300 297 295 293 292 291 290 289 289 289 288 288 289 290 291 291 290 289 289 288 287 287 287 286 285 285 285 284 284 284 283 283 282 281 279 278
311 312 313 315 317 317 316 314 312 310 307 305 304 303 302 299 296 293 290 287 284 282 280 281 283 284 284 282 280 280 282 286 291 296 298 294 291 291 293 293 293 294 295 292 288 284 283 286 293 297 298 297 295 293 292 291 290 289 288 288 287 288 289 290 290 290 289 289 289 288 287 286 286 285 284 284 283 283 282 282 281 280 279 278 277 276
313 314 316 317 318 317 315 314 312 311 309 308 306 304 303 302 299 296 293 290 287 285 282 281 281 282 284 284 283 282 284 286 290 295 297 294 292 291 292 293 293 294 295 293 291 288 285 286 289 294 296 296 295 293 291 291 290 289 288 287 287 287 288 289 289 288 288 288 287 287 286 286 285 285 284 283 282 281 280 280 279 278 276 275 274 273
317 318 319 318 317 315 314 314 313 312 311 309 307 305 303 302 300 298 295 293 290 287 283 279 278 278 279 280 282 283 285 288 291 294 295 292 290 289 291 291 292 292 293 292 292 291 289 289 289 291 293 295 295 293 292 291 291 290 289 288 287 286 286 287 287 287 287 287 286 285 285 285 284 284 283 283 282 281 280 280 279 277 275 273 272 271
319 318 317 316 315 314 313 313 313 312 311 309 308 306 304 303 301 299 297 294 292 289 286 282 278 276 275 275 276 278 281 286 290 292 292 289 287 287 288 288 289 290 289 289 288 288 288 289 290 290 291 292 293 294 294 294 293 292 291 289 288 287 286 286 285 285 285 285 284 283 283 283 283 282 282 282 281 281 281 281 280 278 277 275 273 272
317 315 314 314 314 313 312 312 311 311 310 310 308 307 305 304 302 299 298 296 294 292 290 287 283 280 277 276 275 276 279 283 286 288 288 287 285 284 284 285 286 286 285 285 285 286 287 288 289 290 290 289 290 292 295 297 296 294 291 291 290 289 287 286 285 284 283 281 281 281 281 281 281 281 281 281 281 281 281 280 278 278 277 276 275 273
314 312 312 312 312 312 311 311 310 310 309 309 308 307 305 304 302 301 299 297 296 294 292 290 288 285 284 281 279 279 280 282 284 285 286 286 284 282 281 282 283 282 280 279 281 283 284 286 288 289 290 288 289 290 292 294 294 293 292 292 291 289 287 286 285 283 282 281 280 280 281 280 280 280 280 280 280 280 279 278 277 277 277 275 275 274
312 310 310 310 311 311 310 309 308 308 308 307 306 306 305 304 303 302 301 299 297 295 294 292 290 289 288 287 285 283 283 283 284 285 286 285 284 281 280 279 280 280 280 278 278 278 280 280 281 283 287 289 290 290 290 291 290 291 292 293 292 290 287 286 285 284 282 281 281 281 281 280 279 279 278 279 278 277 276 276 276 276 277 275 275 275
311 309 309 309 309 309 308 307 307 307 307 306 306 306 305 305 305 305 303 302 300 298 297 296 294 292 291 289 287 286 285 285 285 285 285 285 284 282 278 277 277 278 279 278 276 275 275 276 277 280 282 284 286 288 289 288 288 289 291 292 291 290 289 289 287 286 284 282 280 280 280 280 279 278 277 276 275 274 273 273 274 275 274 272 271 272
309 308 307 307 308 308 307 307 307 307 307 307 307 307 307 307 307 307 307 306 304 302 302 300 299 297 296 294 292 290 288 288 288 287 287 286 286 284 281 278 276 276 276 276 275 274 274 274 275 277 279 280 282 284 285 285 286 287 288 287 286 287 289 288 287 285 283 281 279 279 279 279 279 278 276 275 274 273 273 272 272 272 272 270 268 266
308 306 306 306 307 308 307 308 308 308 308 308 307 306 306 307 307 307 307 307 306 305 304 303 302 300 300 299 297 296 294 292 291 290 290 289 288 286 283 280 277 275 274 273 273 273 272 272 273 274 276 277 279 281 283 284 285 285 284 283 284 286 288 287 286 284 282 281 280 279 278 278 278 277 276 275 275 274 273 272 271 270 269 268 266 264
305 304 304 306 307 307 308 309 310 310 310 309 307 305 305 305 305 305 304 303 303 304 305 304 302 300 300 300 301 301 300 298 297 295 293 292 291 288 286 283 280 277 274 272 272 273 273 273 272 271 273 275 276 278 280 283 284 284 283 282 283 284 286 286 286 286 284 282 280 279 279 278 277 277 277 276 275 275 274 272 270 268 267 266 265 263
303 303 304 306 308 309 310 311 311 310 309 307 306 305 305 305 305 304 303 301 300 301 301 302 301 300 298 298 300 302 303 302 301 300 297 295 293 291 288 286 283 280 276 271 270 272 274 275 274 274 274 275 274 275 276 279 281 283 283 282 281 279 278 281 284 286 285 283 281 280 279 278 278 279 278 277 276 275 274 272 271 269 267 265 264 262
304 305 306 308 310 311 311 310 310 309 308 306 305 304 306 305 304 303 302 300 299 300 300 301 301 300 299 299 301 302 304 305 305 304 302 300 297 294 291 288 284 281 277 272 269 269 270 273 276 277 277 276 274 273 274 276 279 281 282 282 281 279 277 278 281 282 282 282 281 280 279 279 279 279 279 278 277 276 273 271 269 268 267 265 262 261
305 306 308 309 310 309 309 309 309 308 307 306 305 305 305 306 305 303 301 300 299 299 300 300 299 297 297 299 301 303 304 305 306 307 306 304 302 299 296 292 287 284 280 276 273 271 268 269 273 276 278 278 277 276 274 275 277 279 280 281 282 281 280 280 280 280 280 280 280 280 281 281 280 279 278 278 278 277 275 272 269 267 266 264 262 260
307 307 308 309 309 309 308 308 308 308 307 306 305 305 306 306 305 304 303 301 299 299 300 301 299 295 294 295 298 300 301 302 304 306 306 307 306 304 301 298 293 289 285 281 278 275 272 270 270 271 273 275 277 278 277 277 276 277 278 280 281 281 281 281 281 281 280 279 278 279 280 281 281 279 278 277 277 277 277 274 271 268 266 264 262 261
308 308 308 308 308 308 308 308 308 307 306 305 306 306 307 307 306 304 304 303 302 300 301 300 299 296 295 295 296 297 298 299 300 302 304 305 306 305 304 302 299 296 291 287 283 280 277 274 271 269 267 268 270 274 277 278 277 276 276 278 279 279 279 279 281 281 281 279 277 277 277 277 276 275 276 277 277 278 277 276 274 271 268 267 265 264
307 307 307 307 306 306 307 308 307 307 306 306 306 307 308 308 307 305 303 303 302 300 299 298 297 297 297 296 297 298 299 299 299 300 301 303 304 305 305 304 303 301 298 295 292 288 284 281 276 271 266 262 263 267 271 274 275 276 276 276 276 276 276 278 280 282 281 279 278 277 276 274 272 271 271 274 277 278 279 279 278 276 273 271 268 267
307 306 306 306 305 305 305 307 307 306 305 306 306 306 307 308 308 307 305 304 302 300 297 296 295 296 296 297 298 298 299 299 299 299 300 302 304 304 304 304 304 303 302 301 300 298 295 292 288 282 275 266 261 261 264 269 273 275 276 275 275 275 275 277 279 281 281 280 279 278 276 275 273 271 270 272 276 279 281 281 280 279 277 274 271 269
306 306 306 305 304 304 304 305 305 305 304 305 305 305 306 307 308 308 307 306 304 301 299 297 295 294 295 296 297 298 300 299 298 298 299 301 302 302 301 301 302 302 302 303 303 303 303 301 298 295 291 283 273 265 263 266 270 274 275 276 276 276 276 277 278 280 279 279 279 278 276 275 274 272 271 272 275 279 281 282 281 280 279 277 274 271